User: anonymous   Login
Location: Unspecified
(0.0000°N, 0.0000°E)
Time: 22:28:57
(UTC+00:00)
Language:

AO-73 - Orbit

View from above orbital plane
View from above orbital plane
View from above satellite
View from above satellite

Ground track
Ground track

The orbit data is extracted from the following two-line orbital elements,

1 39444U 13066AE  23277.45997913  .00009016  00000-0  96769-3 0  9994
2 39444  97.6851 238.0809 0049787 272.4109  87.1408 14.87905037531889
Epoch (UTC): 04 October 2023 11:02:22
Eccentricity: 0.0049787
inclination: 97.6851°
perigee height: 570 km
apogee height: 639 km
right ascension of ascending node: 238.0809°
argument of perigee: 272.4109°
revolutions per day: 14.87905037
mean anomaly at epoch: 87.1408°
orbit number at epoch: 53188

The dashed part of the orbit path shows where the satellite is in the earth's shadow,  

DLR